This is the latest recevied weather packets stored in our database for station/object N8QQQ. If no packets are shown the sender has not sent any weather packets the latest 10 day(s).
| Time | Temp. | Humidity | Pressure | Rain* | Wind** | Luminosity | Snow |
|---|---|---|---|---|---|---|---|
| 1777876943 | -1.67° C | 88% | 999.7 hPa | 0 mm | - | 0 W/m² | - |
| 1777876640 | -1.67° C | 89% | 999.8 hPa | 0 mm | - | 0 W/m² | - |
| 1777876338 | -2.22° C | 88% | 1000 hPa | 0 mm | - | 0 W/m² | - |
| 1777876034 | -1.67° C | 88% | 1000 hPa | 0 mm | - | 0 W/m² | - |
| 1777875729 | -1.67° C | 88% | 1000.2 hPa | 0 mm | - | 0 W/m² | - |
| 1777875427 | -1.67° C | 88% | 1000 hPa | 0 mm | - | 0 W/m² | - |
| 1777875123 | -1.67° C | 88% | 1000.3 hPa | 0 mm | - | 0 W/m² | - |
| 1777874820 | -1.67° C | 87% | 1000.5 hPa | 0 mm | - | 0 W/m² | - |
| 1777874516 | -1.67° C | 87% | 1000.2 hPa | 0 mm | - | 0 W/m² | - |
| 1777874214 | -1.67° C | 88% | 1000.4 hPa | 0 mm | - | 0 W/m² | - |
| 1777873910 | -1.67° C | 89% | 1000.6 hPa | 0 mm | - | 0 W/m² | - |
| 1777873607 | -1.67° C | 88% | 1000.5 hPa | 0 mm | - | 0 W/m² | - |
| 1777873305 | -1.67° C | 87% | 1000.5 hPa | 0 mm | - | 0 W/m² | - |
| 1777873001 | -1.67° C | 85% | 1000.6 hPa | 0 mm | - | 0 W/m² | - |
| 1777872698 | -1.11° C | 86% | 1000.8 hPa | 0 mm | - | 0 W/m² | - |
| 1777872396 | -1.11° C | 85% | 1000.6 hPa | 0 mm | - | 0 W/m² | - |
| 1777872093 | -1.11° C | 86% | 1000.9 hPa | 0 mm | - | 0 W/m² | - |
| 1777871790 | -1.11° C | 86% | 1000.9 hPa | 0 mm | - | 0 W/m² | - |
| 1777871487 | -1.11° C | 85% | 1000.9 hPa | 0 mm | - | 0 W/m² | - |
| 1777871184 | -1.11° C | 85% | 1001 hPa | 0 mm | - | 0 W/m² | - |
| 1777870881 | -1.11° C | 88% | 1001 hPa | 0 mm | - | 0 W/m² | - |
| 1777870578 | -0.56° C | 88% | 1001.1 hPa | 0 mm | - | 0 W/m² | - |
| 1777870273 | -0.56° C | 87% | 1001.1 hPa | 0 mm | - | 0 W/m² | - |
| 1777869971 | -0.56° C | 86% | 1001.1 hPa | 0 mm | - | 0 W/m² | - |
| 1777869667 | 0° C | 85% | 1001.1 hPa | 0 mm | - | 0 W/m² | - |
* Rain latest hour (hover to see other rain measurements)
** Current wind speed in m/s (hover to see current wind gust speed)